When you browse on this site, cookies collect data to enhance your experience and personalize the content and advertising you see.
Visit our Privacy Policy to learn more. By continuing to use the site, you agree to this use of cookies and data.
  • In Hungary
  • List of Countries
  • For 7 days
  • Water Temperature
  • Satellite Maps
  • Weather Map
  • News
  • Weather Widgets
  • user-avatar
    Login

    Hourly Weather Yulara

    Today, 10 December, Monday

    Time Temperature Precipitation Wind Pressure Humidity
    00:00 +31°C° 0 mm 10 mps 717 mmHg 37%
    01:00 +31°C° 0 mm 10 mps 717 mmHg 37%
    02:00 +29°C° 0 mm 9 mps 717 mmHg 38%
    03:00 +29°C° 0 mm 9 mps 717 mmHg 40%
    04:00 +29°C° 0 mm 8 mps 717 mmHg 40%
    05:00 +28°C° 0 mm 8 mps 717 mmHg 41%
    06:00 +28°C° 0 mm 7 mps 717 mmHg 41%
    07:00 +31°C° 0 mm 8 mps 718 mmHg 37%
    08:00 +32°C° 0 mm 8 mps 718 mmHg 34%
    09:00 +33°C° 0 mm 10 mps 718 mmHg 34%
    10:00 +35°C° 0 mm 9 mps 718 mmHg 30%
    11:00 +37°C° 0 mm 8 mps 718 mmHg 25%
    12:00 +39°C° 0 mm 7 mps 718 mmHg 20%
    13:00 +40°C° 0 mm 7 mps 717 mmHg 19%
    14:00 +41°C° 0 mm 6 mps 716 mmHg 18%
    15:00 +41°C° 0 mm 5 mps 715 mmHg 15%
    16:00 +41°C° 0 mm 5 mps 715 mmHg 15%
    17:00 +41°C° 0 mm 4 mps 715 mmHg 15%
    18:00 +41°C° 0 mm 4 mps 715 mmHg 15%
    19:00 +40°C° 0 mm 5 mps 715 mmHg 17%
    20:00 +37°C° 0 mm 5 mps 716 mmHg 19%
    21:00 +36°C° 0 mm 6 mps 715 mmHg 21%
    22:00 +35°C° 0 mm 6 mps 715 mmHg 23%
    23:00 +35°C° 0 mm 6 mps 715 mmHg 26%

    Tomorrow, 11 December, Tuesday

    Time Temperature Precipitation Wind Pressure Humidity
    00:00 +34°C° 0 mm 7 mps 715 mmHg 28%
    01:00 +33°C° 0 mm 6 mps 715 mmHg 29%
    02:00 +32°C° 0 mm 6 mps 715 mmHg 31%
    03:00 +32°C° 0 mm 6 mps 715 mmHg 32%
    04:00 +30°C° 0 mm 6 mps 715 mmHg 33%
    05:00 +30°C° 0 mm 5 mps 715 mmHg 34%
    06:00 +29°C° 0 mm 5 mps 715 mmHg 35%
    07:00 +33°C° 0 mm 6 mps 715 mmHg 31%
    08:00 +35°C° 0 mm 7 mps 716 mmHg 26%
    09:00 +38°C° 0 mm 7 mps 716 mmHg 22%
    10:00 +40°C° 0 mm 7 mps 715 mmHg 19%
    11:00 +41°C° 0 mm 6 mps 715 mmHg 16%
    12:00 +43°C° 0 mm 5 mps 714 mmHg 13%
    13:00 +44°C° 0 mm 4 mps 714 mmHg 12%
    14:00 +43°C° 0 mm 2 mps 713 mmHg 11%
    15:00 +43°C° 0 mm 1 mps 713 mmHg 10%
    16:00 +43°C° 0 mm 1 mps 712 mmHg 10%
    17:00 +43°C° 0 mm 1 mps 712 mmHg 9%
    18:00 +40°C° 0 mm 0 mps 712 mmHg 9%
    19:00 +42°C° 0 mm 1 mps 712 mmHg 10%
    20:00 +41°C° 0 mm 1 mps 712 mmHg 11%
    21:00 +39°C° 0 mm 2 mps 713 mmHg 12%
    22:00 +39°C° 0 mm 3 mps 713 mmHg 13%
    23:00 +38°C° 0 mm 3 mps 713 mmHg 14%

    Day after tomorrow, 12 December, Wednesday

    Time Temperature Precipitation Wind Pressure Humidity
    00:00 +38°C° 0 mm 4 mps 713 mmHg 15%
    01:00 +37°C° 0 mm 5 mps 712 mmHg 17%
    02:00 +36°C° 0 mm 6 mps 712 mmHg 20%
    03:00 +35°C° 0 mm 6 mps 712 mmHg 22%
    04:00 +34°C° 0 mm 7 mps 712 mmHg 25%
    05:00 +34°C° 0 mm 7 mps 712 mmHg 27%
    06:00 +33°C° 0 mm 8 mps 713 mmHg 29%
    07:00 +35°C° 0 mm 8 mps 713 mmHg 27%
    08:00 +37°C° 0 mm 8 mps 713 mmHg 25%
    09:00 +38°C° 0 mm 7 mps 714 mmHg 23%
    10:00 +39°C° 0 mm 7 mps 713 mmHg 20%
    11:00 +41°C° 0 mm 6 mps 713 mmHg 18%
    12:00 +42°C° 0 mm 5 mps 713 mmHg 16%
    13:00 +43°C° 0 mm 4 mps 712 mmHg 14%
    14:00 +44°C° 0 mm 4 mps 712 mmHg 13%
    15:00 +45°C° 0 mm 4 mps 711 mmHg 12%
    16:00 +45°C° 0 mm 6 mps 711 mmHg 13%
    17:00 +44°C° 0 mm 8 mps 711 mmHg 15%
    18:00 +43°C° 0 mm 11 mps 711 mmHg 16%
    19:00 +42°C° 0 mm 11 mps 712 mmHg 16%
    20:00 +40°C° 0 mm 10 mps 712 mmHg 17%
    21:00 +39°C° 0 mm 10 mps 713 mmHg 17%
    22:00 +37°C° 0 mm 11 mps 713 mmHg 24%
    23:00 +36°C° 0 mm 12 mps 713 mmHg 30%

    13 December, Thursday

    Time Temperature Precipitation Wind Pressure Humidity
    00:00 +33°C° 0 mm 13 mps 714 mmHg 37%
    01:00 +32°C° 0 mm 12 mps 714 mmHg 39%
    02:00 +29°C° 0 mm 12 mps 714 mmHg 42%
    03:00 +27°C° 0 mm 12 mps 714 mmHg 45%
    04:00 +27°C° 0 mm 11 mps 715 mmHg 43%
    05:00 +26°C° 0 mm 10 mps 715 mmHg 40%
    06:00 +24°C° 0 mm 9 mps 716 mmHg 38%
    07:00 +26°C° 0 mm 9 mps 717 mmHg 34%
    08:00 +27°C° 0 mm 9 mps 717 mmHg 31%
    09:00 +28°C° 0 mm 9 mps 717 mmHg 27%
    10:00 +31°C° 0 mm 8 mps 717 mmHg 25%
    11:00 +33°C° 0 mm 8 mps 717 mmHg 23%
    12:00 +35°C° 0 mm 7 mps 716 mmHg 21%
    13:00 +36°C° 0 mm 7 mps 715 mmHg 19%
    14:00 +36°C° 0 mm 7 mps 715 mmHg 18%
    15:00 +38°C° 0 mm 7 mps 714 mmHg 17%
    16:00 +38°C° 0 mm 7 mps 714 mmHg 16%
    17:00 +37°C° 0 mm 8 mps 715 mmHg 16%
    18:00 +35°C° 0 mm 8 mps 715 mmHg 16%
    19:00 +34°C° 0 mm 8 mps 715 mmHg 17%
    20:00 +32°C° 0 mm 9 mps 716 mmHg 17%
    21:00 +31°C° 0 mm 9 mps 716 mmHg 17%
    22:00 +28°C° 0 mm 9 mps 716 mmHg 19%
    23:00 +27°C° 0 mm 9 mps 716 mmHg 20%

    14 December, Friday

    Time Temperature Precipitation Wind Pressure Humidity
    00:00 +26°C° 0 mm 9 mps 716 mmHg 22%
    01:00 +24°C° 0 mm 9 mps 716 mmHg 23%
    02:00 +23°C° 0 mm 9 mps 715 mmHg 25%
    03:00 +22°C° 0 mm 9 mps 715 mmHg 27%
    04:00 +21°C° 0 mm 8 mps 715 mmHg 30%
    05:00 +20°C° 0 mm 8 mps 716 mmHg 32%
    06:00 +18°C° 0 mm 8 mps 716 mmHg 35%
    07:00 +20°C° 0 mm 7 mps 717 mmHg 31%
    08:00 +22°C° 0 mm 7 mps 717 mmHg 28%
    09:00 +23°C° 0 mm 6 mps 717 mmHg 25%
    10:00 +26°C° 0 mm 6 mps 717 mmHg 21%
    11:00 +27°C° 0 mm 6 mps 717 mmHg 16%
    12:00 +29°C° 0 mm 5 mps 716 mmHg 12%
    13:00 +30°C° 0 mm 5 mps 715 mmHg 10%
    14:00 +33°C° 0 mm 5 mps 715 mmHg 9%
    15:00 +34°C° 0 mm 5 mps 714 mmHg 8%
    16:00 +33°C° 0 mm 5 mps 714 mmHg 8%
    17:00 +33°C° 0 mm 6 mps 714 mmHg 8%
    18:00 +33°C° 0 mm 6 mps 714 mmHg 8%
    19:00 +30°C° 0 mm 6 mps 714 mmHg 9%
    20:00 +29°C° 0 mm 5 mps 715 mmHg 11%
    21:00 +28°C° 0 mm 5 mps 715 mmHg 12%
    22:00 +27°C° 0 mm 5 mps 715 mmHg 14%
    23:00 +26°C° 0 mm 5 mps 715 mmHg 16%

    15 December, Saturday

    Time Temperature Precipitation Wind Pressure Humidity
    00:00 +25°C° 0 mm 5 mps 715 mmHg 17%
    01:00 +23°C° 0 mm 4 mps 714 mmHg 19%
    02:00 +22°C° 0 mm 4 mps 714 mmHg 21%
    03:00 +22°C° 0 mm 4 mps 713 mmHg 23%
    04:00 +21°C° 0 mm 4 mps 713 mmHg 25%
    05:00 +21°C° 0 mm 4 mps 713 mmHg 26%
    06:00 +20°C° 0 mm 4 mps 714 mmHg 28%
    07:00 +22°C° 0 mm 4 mps 714 mmHg 26%
    08:00 +25°C° 0 mm 4 mps 714 mmHg 23%
    09:00 +26°C° 0 mm 3 mps 714 mmHg 21%
    10:00 +28°C° 0 mm 3 mps 714 mmHg 19%
    11:00 +30°C° 0 mm 3 mps 714 mmHg 16%
    12:00 +31°C° 0 mm 2 mps 713 mmHg 13%
    13:00 +32°C° 0 mm 2 mps 713 mmHg 12%
    14:00 +35°C° 0 mm 3 mps 712 mmHg 11%
    15:00 +36°C° 0 mm 3 mps 711 mmHg 10%
    16:00 +36°C° 0 mm 3 mps 711 mmHg 9%
    17:00 +36°C° 0 mm 3 mps 711 mmHg 9%
    18:00 +36°C° 0 mm 3 mps 711 mmHg 9%
    19:00 +35°C° 0 mm 3 mps 712 mmHg 10%
    20:00 +33°C° 0 mm 4 mps 712 mmHg 11%
    21:00 +32°C° 0 mm 4 mps 712 mmHg 12%
    22:00 +30°C° 0 mm 4 mps 712 mmHg 13%
    23:00 +29°C° 0 mm 4 mps 712 mmHg 13%
    Show more